Вернуться в каталог

STARLINK-3145

АктивенСвязьVLEO
NORAD 49455·PAYLOAD·🇺🇸 United States

Запущен Nov 13, 2021 с Cape Canaveral Space Force Station

Loading…

Ближайшие Пролёты (ближайшие 24 часа)

TLE

СвежийSource: CelesTrak SupGP

Эпоха: Sep 14, 2026, 21:42 UTC

1 49455C 21104AZ  26257.90465278  .00039680  00000+0  11724-2 0  2577
2 49455  53.1580  77.5286 0000819  83.7840  57.7010 15.34370241    15

Отслеживайте STARLINK-3145 в реальном времени с AllMySat

Download on the App Store